Zurück zum Katalog

STARLINK-3589

AktivKommunikationVLEO
NORAD 51997·PAYLOAD·🇺🇸 United States

Gestartet Mar 9, 2022 von Cape Canaveral Space Force Station

Loading…

Nächste Überflüge (nächste 24 Stunden)

TLE

AktuellSource: CelesTrak SupGP

Epoche: Sep 14, 2026, 14:32 UTC

1 51997C 22025AT  26257.60604167 -.00051989  00000+0 -15363-2 0  2574
2 51997  53.1564 237.0223 0001354  87.7239  37.4690 15.34410717    18

Verfolge STARLINK-3589 in Echtzeit mit AllMySat

Download on the App Store